^^
Datos históricos de la estación: Murcia-Puente Tocinos
Diario Informe para Marzo 4, 2019 Unidades:  Ingés    Métrico   Ambas
Diario Semanal Mensual Anual
  Máxima: Mínima: Promedio:
Temperatura: 87.3 °F 72.3 °F 79.3 °F
Punto de rocio: 70.5 °F 59.5 °F 64.6 °F
Humedad: 79% 42% 62%
Velocidad viento: 12mph 0mph 5.6mph
Racha viento: 21mph - -
Viento- - ESE
Presión: 30 in 29.9 in -
Precipitación: 0 in    
 
 
Tabla de datos para Marzo 4, 2019
Hora Temperatura Punto de rocio Presión Viento Velocidad viento Racha viento Humedad Intensidad lluvia(por hora) Nubes
00:00 75.9 °F 65.8 °F 29.9 in NE 5 mph 7 mph 71% 0 in
00:05 75.9 °F 65.8 °F 29.9 in NE 5 mph 7 mph 71% 0 in
00:10 75.7 °F 65.7 °F 29.9 in NE 5.2 mph 8.1 mph 71% 0 in
00:15 75.7 °F 65.7 °F 29.9 in NE 5 mph 9 mph 71% 0 in
00:20 75.7 °F 65.7 °F 29.9 in NNE 4.3 mph 6.9 mph 71% 0 in
00:25 75.7 °F 66 °F 29.9 in NE 5 mph 7 mph 72% 0 in
00:30 75.7 °F 66 °F 29.9 in NE 5 mph 6 mph 72% 0 in
00:35 75.6 °F 65.8 °F 29.9 in NE 5 mph 7 mph 72% 0 in
00:40 75.6 °F 66.4 °F 29.9 in NE 5 mph 8 mph 73% 0 in
00:45 75.4 °F 66 °F 29.9 in NE 5 mph 7 mph 73% 0 in
00:50 75.4 °F 66 °F 29.9 in NE 4.7 mph 4.6 mph 73% 0 in
00:55 75.4 °F 66 °F 29.9 in NE 5 mph 7 mph 73% 0 in
01:00 75.4 °F 66 °F 29.9 in NNE 5 mph 6 mph 73% 0 in
01:05 75.4 °F 66 °F 29.9 in NNE 5 mph 5 mph 73% 0 in
01:10 75.4 °F 66 °F 29.9 in NNE 3 mph 5 mph 73% 0 in
01:15 75.4 °F 66.6 °F 29.9 in NNE 3 mph 5 mph 74% 0 in
01:20 75.4 °F 66.6 °F 29.9 in NE 2.9 mph 4.7 mph 74% 0 in
01:25 75.4 °F 66.6 °F 29.9 in NE 2 mph 7 mph 74% 0 in
01:30 75 °F 66.2 °F 29.9 in NNO 4 mph 4.6 mph 74% 0 in
01:35 75 °F 66.6 °F 29.9 in NNO 5 mph 4 mph 75% 0 in
01:40 75 °F 66.6 °F 29.9 in NNO 2 mph 2.3 mph 75% 0 in
01:45 75 °F 66.2 °F 29.9 in NNO 2 mph 3 mph 74% 0 in
01:50 75 °F 66.2 °F 29.9 in North 1.8 mph 3.6 mph 74% 0 in
01:55 75 °F 66.2 °F 29.9 in North 2 mph 4 mph 74% 0 in
02:00 74.8 °F 66.4 °F 29.9 in North 2 mph 5 mph 75% 0 in
02:05 74.8 °F 66.4 °F 29.9 in NNE 2 mph 5 mph 75% 0 in
02:10 74.8 °F 66.4 °F 29.9 in NNE 2 mph 2.9 mph 75% 0 in
02:15 74.8 °F 66.4 °F 29.9 in NNE 2 mph 4 mph 75% 0 in
02:20 74.7 °F 66.6 °F 29.9 in North 1.8 mph   76% 0 in
02:25 74.7 °F 66.6 °F 29.9 in North 2 mph 4 mph 76% 0 in
02:30 74.7 °F 66.6 °F 29.9 in NNO 1.8 mph 4.6 mph 76% 0 in
02:35 74.5 °F 66.4 °F 29.9 in NNO 2 mph 4 mph 76% 0 in
02:40 74.5 °F 66.4 °F 29.9 in NO 1.8 mph 3.5 mph 76% 0 in
02:45 74.5 °F 66.4 °F 29.9 in NO 2 mph 4 mph 76% 0 in
02:50 74.1 °F 65.7 °F 29.9 in OSO 2.4 mph 4.6 mph 75% 0 in
02:55 73.9 °F 65.7 °F 29.9 in Oeste 2 mph 6 mph 75% 0 in
03:00 73.8 °F 65.3 °F 29.9 in Oeste 3 mph 6 mph 75% 0 in
03:05 73.8 °F 65.7 °F 29.9 in SO 3.6 mph 4.6 mph 76% 0 in
03:10 73.8 °F 65.7 °F 29.9 in Oeste 3.6 mph 5.8 mph 76% 0 in
03:15 73.9 °F 65.8 °F 29.9 in OSO 3 mph 6 mph 76% 0 in
03:20 74.1 °F 66 °F 29.9 in SO 4 mph 4.6 mph 76% 0 in
03:25 74.3 °F 66.2 °F 29.9 in OSO 5 mph 5 mph 76% 0 in
03:30 74.5 °F 66.4 °F 29.9 in OSO 3 mph 6 mph 76% 0 in
03:35 74.5 °F 66.4 °F 29.9 in OSO 3 mph 5 mph 76% 0 in
03:40 74.7 °F 66.2 °F 29.9 in SSO 2.9 mph 6.9 mph 75% 0 in
03:45 74.7 °F 65.8 °F 29.9 in SO 2 mph 8 mph 74% 0 in
03:50 74.5 °F 65.3 °F 29.9 in SSO 5.2 mph 6.9 mph 73% 0 in
03:55 74.5 °F 64.9 °F 29.9 in SO 5 mph 8 mph 72% 0 in
04:00 74.3 °F 64.8 °F 29.9 in SO 5 mph 8 mph 72% 0 in
04:05 74.1 °F 64 °F 29.9 in SSO 5 mph 8 mph 71% 0 in
04:10 73.8 °F 64.2 °F 29.9 in SSO 4.7 mph 5.4 mph 72% 0 in
04:15 73.6 °F 64 °F 29.9 in Sur 5 mph 7 mph 72% 0 in
04:20 73.6 °F 64 °F 29.9 in Sur 5 mph 8 mph 72% 0 in
04:25 73.4 °F 64.2 °F 29.9 in Sur 5 mph 8 mph 73% 0 in
04:30 73.4 °F 64.2 °F 29.9 in Sur 5 mph 7 mph 73% 0 in
04:35 73.4 °F 64.2 °F 29.9 in Sur 5 mph 8 mph 73% 0 in
04:40 73.2 °F 64 °F 29.9 in SSO 5 mph 9 mph 73% 0 in
04:45 73.2 °F 64 °F 29.9 in SSO 5 mph 8 mph 73% 0 in
04:50 73.2 °F 64 °F 29.9 in SSO 5 mph 8 mph 73% 0 in
04:55 73.4 °F 64.2 °F 29.9 in SSO 5 mph 8 mph 73% 0 in
05:00 73.4 °F 64.2 °F 29.9 in SSO 5 mph 7 mph 73% 0 in
05:05 73.4 °F 64.2 °F 29.9 in SSO 5 mph 6 mph 73% 0 in
05:10 73.4 °F 63.9 °F 29.9 in SSO 3.6 mph 5.8 mph 72% 0 in
05:15 73.4 °F 63.9 °F 29.9 in SSO 3 mph 6 mph 72% 0 in
05:20 73.4 °F 63.3 °F 29.9 in SSO 3.6 mph 9.2 mph 71% 0 in
05:25 73.6 °F 63.5 °F 29.9 in SSO 3 mph 9 mph 71% 0 in
05:30 73.6 °F 63.1 °F 29.9 in SO 5.4 mph 3.5 mph 70% 0 in
05:35 73.6 °F 63.1 °F 29.9 in SO 6 mph 8 mph 70% 0 in
05:40 73.6 °F 63.1 °F 29.9 in OSO 3 mph 5 mph 70% 0 in
05:45 73.6 °F 63.1 °F 29.9 in Oeste 3 mph 5 mph 70% 0 in
05:50 73.2 °F 63 °F 29.9 in Oeste 2 mph 5 mph 70% 0 in
05:55 73.2 °F 62.8 °F 29.9 in Oeste 2 mph 5 mph 70% 0 in
06:00 73 °F 62.8 °F 29.9 in Oeste 2 mph 5 mph 70% 0 in
06:05 73 °F 62.8 °F 29.9 in Oeste 2 mph 4 mph 70% 0 in
06:10 72.9 °F 62.4 °F 29.9 in Oeste 2 mph 5 mph 70% 0 in
06:15 72.9 °F 62.4 °F 29.9 in ONO 2.4 mph 4.6 mph 70% 0 in
06:20 72.9 °F 62.4 °F 29.9 in ONO 2 mph 5 mph 70% 0 in
06:25 72.9 °F 62.4 °F 29.9 in ONO 2 mph 5 mph 70% 0 in
06:30 72.9 °F 62.4 °F 29.9 in ONO 2 mph 5 mph 70% 0 in
06:35 72.7 °F 62.2 °F 29.9 in Oeste 2 mph 5 mph 70% 0 in
06:40 72.7 °F 62.2 °F 29.9 in Oeste 2 mph 6 mph 70% 0 in
06:45 72.9 °F 62.4 °F 29.9 in Oeste 2 mph 6 mph 70% 0 in
06:50 72.9 °F 63 °F 29.9 in Oeste 2.9 mph 4.6 mph 71% 0 in
06:55 72.9 °F 62.8 °F 29.9 in Oeste 2 mph 5 mph 71% 0 in
07:00 72.7 °F 62.8 °F 29.9 in Oeste 2 mph 4 mph 71% 0 in
07:05 72.7 °F 62.8 °F 29.9 in Oeste 2 mph 5 mph 71% 0 in
07:10 72.7 °F 62.8 °F 29.9 in Oeste 2 mph 2.3 mph 71% 0 in
07:15 72.7 °F 62.8 °F 29.9 in Oeste 2 mph 3 mph 71% 0 in
07:20 72.9 °F 63 °F 29.9 in SE 1.8 mph 3.5 mph 71% 0 in
07:25 72.9 °F 63.3 °F 29.9 in SSE 2 mph 4 mph 72% 0 in
07:30 72.7 °F 63.1 °F 29.9 in NE 2 mph 4.6 mph 72% 0 in
07:35 72.7 °F 63.1 °F 29.9 in ENE 2 mph 5 mph 72% 0 in
07:40 72.5 °F 63 °F 29.9 in North 2 mph 2.3 mph 72% 0 in
07:45 72.3 °F 62.8 °F 29.9 in North 2 mph 2 mph 72% 0 in
07:50 72.5 °F 63 °F 29.9 in Calm   4.6 mph 72% 0 in
07:55 72.5 °F 63.3 °F 29.9 in Calm   5 mph 73% 0 in
08:00 72.5 °F 63.3 °F 29.9 in Este 2 mph 5 mph 73% 0 in
08:05 72.5 °F 63 °F 29.9 in SSE 2 mph 5 mph 72% 0 in
08:10 72.7 °F 62.8 °F 29.9 in SE 3.1 mph 4.6 mph 71% 0 in
08:15 72.9 °F 62.1 °F 29.9 in SE 3.1 mph 5.8 mph 69% 0 in
08:20 73.2 °F 62.1 °F 29.9 in SSE 5 mph 8 mph 68% 0 in
08:25 73.2 °F 61.5 °F 29.9 in SO 4.3 mph 5.8 mph 67% 0 in
08:30 73.4 °F 61.3 °F 29.9 in Sur 4.7 mph 8.1 mph 66% 0 in
08:35 73.6 °F 61.5 °F 29.9 in SSO 5 mph 9 mph 66% 0 in
08:40 73.4 °F 61.3 °F 29.9 in SSO 5.9 mph 6.9 mph 66% 0 in
08:45 73.6 °F 61.5 °F 29.9 in SSO 6 mph 7 mph 66% 0 in
08:50 73.8 °F 61.3 °F 29.9 in SSO 5 mph 7 mph 65% 0 in
08:55 73.9 °F 61.3 °F 29.9 in SSO 5 mph 7 mph 65% 0 in
09:00 74.3 °F 61.3 °F 29.9 in SSO 5 mph 7 mph 64% 0 in
09:05 74.7 °F 61.7 °F 29.9 in SO 5 mph 7 mph 64% 0 in
09:10 74.8 °F 61.3 °F 29.9 in SO 5 mph 10 mph 63% 0 in
09:15 75 °F 61.5 °F 29.9 in SSO 5 mph 9 mph 63% 0 in
09:20 75.4 °F 61.3 °F 29.9 in SSO 5 mph 7 mph 62% 0 in
09:25 75.6 °F 61.2 °F 29.9 in SO 5 mph 8 mph 61% 0 in
09:30 75.6 °F 61.2 °F 29.9 in SO 5 mph 7 mph 61% 0 in
09:35 75.7 °F 60.8 °F 29.9 in OSO 5 mph 8 mph 60% 0 in
09:40 76.3 °F 61.3 °F 29.9 in SSO 4.3 mph 5.8 mph 60% 0 in
09:45 76.5 °F 61.2 °F 29.9 in OSO 5 mph 5 mph 59% 0 in
09:50 76.8 °F 61 °F 29.9 in OSO 3.6 mph 6.9 mph 58% 0 in
09:55 77.2 °F 60.8 °F 29.9 in SO 3 mph 8 mph 57% 0 in
10:00 77.2 °F 60.8 °F 29.9 in SO 5 mph 9 mph 57% 0 in
10:05 77.4 °F 61 °F 30 in SO 4.3 mph 6.9 mph 57% 0 in
10:10 77.9 °F 61 °F 30 in SSO 5 mph 7 mph 56% 0 in
10:15 78.1 °F 61.2 °F 30 in Sur 4.7 mph 5.9 mph 56% 0 in
10:20 78.3 °F 60.8 °F 30 in OSO 4.7 mph 6.9 mph 55% 0 in
10:25 78.4 °F 61 °F 30 in SO 5 mph 8 mph 55% 0 in
10:30 79 °F 61 °F 30 in OSO 3.6 mph 5.8 mph 54% 0 in
10:35 79.3 °F 60.6 °F 29.9 in SSO 3 mph 6 mph 53% 0 in
10:40 80.1 °F 60.8 °F 29.9 in Sur 3.6 mph 6.2 mph 52% 0 in
10:45 80.2 °F 61 °F 29.9 in Sur 3 mph 6 mph 52% 0 in
10:50 80.6 °F 60.8 °F 30 in NO 3.6 mph 3.5 mph 51% 0 in
10:55 81 °F 61.2 °F 30 in North 3 mph 5 mph 51% 0 in
11:00 81.5 °F 61.2 °F 30 in NO 2 mph 4 mph 50% 0 in
11:05 82.2 °F 60.1 °F 30 in NNO 2 mph 7 mph 47% 0 in
11:10 82.2 °F 60.6 °F 30 in NE 3.6 mph 6.9 mph 48% 0 in
11:15 82 °F 60.4 °F 30 in NE 3 mph 8 mph 48% 0 in
11:20 82 °F 60.4 °F 29.9 in Este 5.2 mph 5.2 mph 48% 0 in
11:25 82.2 °F 60.1 °F 29.9 in ENE 5 mph 9 mph 47% 0 in
11:30 82.6 °F 60.3 °F 29.9 in ENE 5.2 mph 8.1 mph 47% 0 in
11:35 82.8 °F 60.4 °F 29.9 in NE 5 mph 10 mph 47% 0 in
11:40 82.8 °F 60.4 °F 29.9 in ENE 6 mph 10 mph 47% 0 in
11:45 82.9 °F 60.6 °F 29.9 in NNE 5.9 mph 8.1 mph 47% 0 in
11:50 83.1 °F 60.8 °F 29.9 in NE 5 mph 10 mph 47% 0 in
11:55 83.5 °F 61.2 °F 29.9 in NNE 5.2 mph 4.6 mph 47% 0 in
12:00 83.8 °F 60.8 °F 29.9 in NNE 5 mph 13 mph 46% 0 in
12:05 84 °F 60.4 °F 29.9 in NNE 5 mph 13 mph 45% 0 in
12:10 84 °F 60.4 °F 29.9 in NE 6.9 mph 6.9 mph 45% 0 in
12:15 84 °F 60.4 °F 29.9 in ENE 7 mph 7 mph 45% 0 in
12:20 84.6 °F 61 °F 29.9 in NNE 3.6 mph 12.7 mph 45% 0 in
12:25 84.7 °F 60.4 °F 29.9 in NNE 3 mph 12 mph 44% 0 in
12:30 85.1 °F 60.1 °F 29.9 in NNO 4.3 mph 6.9 mph 43% 0 in
12:35 85.1 °F 60.1 °F 29.9 in NE 5 mph 9 mph 43% 0 in
12:40 85.5 °F 60.4 °F 29.9 in NE 5.2 mph 9.2 mph 43% 0 in
12:45 85.3 °F 59.5 °F 29.9 in NNE 5 mph 12 mph 42% 0 in
12:50 85.3 °F 60.3 °F 29.9 in Este 6.2 mph 5.4 mph 43% 0 in
12:55 85.6 °F 61.2 °F 29.9 in NE 6 mph 13 mph 44% 0 in
13:00 85.8 °F 60.6 °F 29.9 in NE 6 mph 12 mph 43% 0 in
13:05 86.2 °F 61.2 °F 29.9 in NE 6 mph 12 mph 43% 0 in
13:10 86.2 °F 60.4 °F 29.9 in Este 8.1 mph 10.4 mph 42% 0 in
13:15 86.4 °F 60.6 °F 29.9 in ENE 8 mph 16 mph 42% 0 in
13:20 86.4 °F 60.6 °F 29.9 in ENE 8 mph 16 mph 42% 0 in
13:25 86.5 °F 60.6 °F 29.9 in NE 8 mph 16 mph 42% 0 in
13:30 86.5 °F 61.3 °F 29.9 in NE 7.4 mph 13.8 mph 43% 0 in
13:35 86.4 °F 61.9 °F 29.9 in ENE 7 mph 15 mph 44% 0 in
13:40 86.5 °F 62.1 °F 29.9 in NE 8.5 mph 16.1 mph 44% 0 in
13:45 86.7 °F 62.2 °F 29.9 in ENE 8 mph 16 mph 44% 0 in
13:50 86.7 °F 62.2 °F 29.9 in ENE 8.5 mph 11.5 mph 44% 0 in
13:55 87.1 °F 62.4 °F 29.9 in ENE 8 mph 15 mph 44% 0 in
14:00 86.2 °F 61.7 °F 29.9 in ENE 9 mph 16 mph 44% 0 in
14:05 86 °F 62.2 °F 29.9 in ENE 9 mph 15 mph 45% 0 in
14:10 86 °F 62.2 °F 29.9 in ENE 9 mph 16 mph 45% 0 in
14:15 85.8 °F 62.1 °F 29.9 in ENE 9 mph 15 mph 45% 0 in
14:20 86.2 °F 62.2 °F 29.9 in Este 8.1 mph 9.2 mph 45% 0 in
14:25 86.2 °F 62.2 °F 29.9 in ENE 8 mph 18 mph 45% 0 in
14:30 85.6 °F 62.4 °F 29.9 in NE 8.7 mph 17.3 mph 46% 0 in
14:35 85.8 °F 61.3 °F 29.9 in NE 9 mph 19 mph 44% 0 in
14:40 85.8 °F 63.3 °F 29.9 in NNE 10.7 mph 12.7 mph 47% 0 in
14:45 86.4 °F 63.1 °F 29.9 in ENE 10 mph 15 mph 46% 0 in
14:50 86.5 °F 62.1 °F 29.9 in ENE 7.4 mph 8.1 mph 44% 0 in
14:55 86.9 °F 63.7 °F 29.9 in ENE 7 mph 13 mph 46% 0 in
15:00 86.5 °F 63.9 °F 29.9 in ENE 8 mph 15 mph 47% 0 in
15:05 85.8 °F 63.3 °F 29.9 in NE 8 mph 17 mph 47% 0 in
15:10 85.8 °F 63.3 °F 29.9 in NE 10 mph 15 mph 47% 0 in
15:15 85.6 °F 63.1 °F 29.9 in NNE 10 mph 9.2 mph 47% 0 in
15:20 85.8 °F 63.9 °F 29.9 in ENE 8.5 mph 9.2 mph 48% 0 in
15:25 86.2 °F 63.7 °F 29.9 in NE 8 mph 16 mph 47% 0 in
15:30 86.2 °F 63.7 °F 29.9 in ENE 9.7 mph 15 mph 47% 0 in
15:35 86.2 °F 64 °F 29.9 in NE 9 mph 17 mph 48% 0 in
15:40 86.5 °F 64.6 °F 29.9 in NE 9.2 mph 13.8 mph 48% 0 in
15:45 86.4 °F 63.9 °F 29.9 in NE 9 mph 17 mph 47% 0 in
15:50 86.5 °F 62.8 °F 29.9 in ENE 10 mph 13.8 mph 45% 0 in
15:55 86.7 °F 63.5 °F 29.9 in NE 10 mph 19 mph 46% 0 in
16:00 86.5 °F 63.3 °F 29.9 in NE 9 mph 18 mph 46% 0 in
16:05 86.7 °F 64 °F 29.9 in ENE 9 mph 18 mph 47% 0 in
16:10 87.1 °F 64.4 °F 29.9 in NE 8.5 mph 15 mph 47% 0 in
16:15 86.9 °F 64.8 °F 29.9 in ENE 8 mph 16 mph 48% 0 in
16:20 86.9 °F 64.2 °F 29.9 in ENE 8.5 mph 16.1 mph 47% 0 in
16:25 86.4 °F 64.4 °F 29.9 in NE 8 mph 18 mph 48% 0 in
16:30 86.4 °F 64.9 °F 29.9 in NE 10 mph 16 mph 49% 0 in
16:35 86.2 °F 65.5 °F 29.9 in NE 10 mph 21 mph 50% 0 in
16:40 86.2 °F 64.8 °F 29.9 in NNE 11.4 mph 12.7 mph 49% 0 in
16:45 86.5 °F 65.1 °F 29.9 in NE 12 mph 17 mph 49% 0 in
16:50 86.9 °F 66 °F 29.9 in ENE 9.2 mph 11.5 mph 50% 0 in
16:55 87.1 °F 65.7 °F 29.9 in ENE 9 mph 17 mph 49% 0 in
17:00 87.3 °F 65.8 °F 29.9 in Este 8 mph 16 mph 49% 0 in
17:05 86.9 °F 64.8 °F 29.9 in ENE 8 mph 20 mph 48% 0 in
17:10 86.5 °F 65.7 °F 29.9 in Este 10 mph 13.8 mph 50% 0 in
17:15 86.5 °F 64.6 °F 29.9 in ENE 10 mph 21 mph 48% 0 in
17:20 86.4 °F 64.4 °F 29.9 in ENE 9 mph 20 mph 48% 0 in
17:25 86.2 °F 64.8 °F 29.9 in ENE 9 mph 18 mph 49% 0 in
17:30 85.8 °F 64.6 °F 29.9 in NE 12 mph 18 mph 49% 0 in
17:35 85.8 °F 65.7 °F 29.9 in NE 12 mph 19 mph 51% 0 in
17:40 85.8 °F 65.7 °F 29.9 in NNO 10 mph 12.7 mph 51% 0 in
17:45 85.6 °F 65.5 °F 29.9 in ENE 10 mph 20 mph 51% 0 in
17:50 85.6 °F 64.9 °F 29.9 in North 10 mph 14 mph 50% 0 in
17:55 85.6 °F 64.2 °F 29.9 in ENE 10 mph 16 mph 49% 0 in
18:00 85.5 °F 65.3 °F 29.9 in ENE 9 mph 19 mph 51% 0 in
18:05 85.1 °F 64.9 °F 29.9 in ENE 9 mph 18 mph 51% 0 in
18:10 85.3 °F 65.1 °F 29.9 in Este 10.7 mph 16.1 mph 51% 0 in
18:15 85.3 °F 65.1 °F 29.9 in NE 10 mph 14 mph 51% 0 in
18:20 85.3 °F 65.1 °F 29.9 in ENE 9.2 mph 12.7 mph 51% 0 in
18:25 84.9 °F 64.8 °F 29.9 in ENE 9 mph 17 mph 51% 0 in
18:30 84.9 °F 65.3 °F 29.9 in ENE 9.2 mph 12.7 mph 52% 0 in
18:35 84.9 °F 65.3 °F 29.9 in NE 9 mph 14 mph 52% 0 in
18:40 84.7 °F 65.1 °F 29.9 in Este 8.1 mph 13 mph 52% 0 in
18:45 84.6 °F 66.6 °F 29.9 in ENE 8 mph 16 mph 55% 0 in
18:50 84 °F 66.6 °F 29.9 in NE 10 mph 19 mph 56% 0 in
18:55 83.8 °F 65.5 °F 29.9 in NE 10 mph 17 mph 54% 0 in
19:00 83.8 °F 67.5 °F 29.9 in NE 9 mph 17 mph 58% 0 in
19:05 83.7 °F 66.4 °F 29.9 in NE 9 mph 15 mph 56% 0 in
19:10 83.5 °F 67.6 °F 29.9 in NE 9.7 mph 15 mph 59% 0 in
19:15 83.5 °F 67.1 °F 29.9 in NE 9.7 mph 15 mph 58% 0 in
19:20 83.5 °F 67.6 °F 29.9 in ENE 9 mph 13 mph 59% 0 in
19:25 83.5 °F 67.1 °F 29.9 in ENE 9 mph 15 mph 58% 0 in
19:30 83.1 °F 66.7 °F 29.9 in NE 9 mph 16 mph 58% 0 in
19:35 83.1 °F 67.8 °F 29.9 in NE 9 mph 15 mph 60% 0 in
19:40 82.8 °F 67.5 °F 29.9 in ESE 9.2 mph 17.3 mph 60% 0 in
19:45 82.8 °F 67.8 °F 29.9 in ENE 9 mph 14 mph 61% 0 in
19:50 82.6 °F 67.8 °F 29.9 in NE 8.1 mph 10.4 mph 61% 0 in
19:55 82.6 °F 67.8 °F 29.9 in ENE 8 mph 15 mph 61% 0 in
20:00 82.4 °F 67.6 °F 29.9 in ENE 8 mph 13 mph 61% 0 in
20:05 82.2 °F 67.8 °F 29.9 in ENE 8 mph 15 mph 62% 0 in
20:10 81.9 °F 67.6 °F 29.9 in ENE 8 mph 14 mph 62% 0 in
20:15 81.7 °F 67.8 °F 29.9 in NE 8 mph 12 mph 63% 0 in
20:20 81.5 °F 68.2 °F 29.9 in ENE 8.5 mph 12.7 mph 64% 0 in
20:25 81.7 °F 68.4 °F 29.9 in NE 8 mph 12 mph 64% 0 in
20:30 81.7 °F 68.4 °F 29.9 in ENE 7 mph 10 mph 64% 0 in
20:35 81.5 °F 68.2 °F 29.9 in ENE 7 mph 13 mph 64% 0 in
20:40 81.3 °F 68 °F 29.9 in NNE 6.9 mph 13.8 mph 64% 0 in
20:45 81 °F 67.6 °F 29.9 in NE 6.9 mph 13.8 mph 64% 0 in
20:50 81 °F 68.5 °F 29.9 in ENE 8.7 mph 10.4 mph 66% 0 in
20:55 80.8 °F 68.4 °F 29.9 in NE 9 mph 15 mph 66% 0 in
21:00 80.6 °F 68.5 °F 29.9 in NE 8 mph 14 mph 67% 0 in
21:05 80.4 °F 68.5 °F 29.9 in NE 8 mph 12 mph 67% 0 in
21:10 80.4 °F 68.5 °F 29.9 in Este 6.2 mph 5.8 mph 67% 0 in
21:15 80.4 °F 68.9 °F 29.9 in ENE 6 mph 9 mph 68% 0 in
21:20 80.2 °F 69.1 °F 29.9 in ESE 5.2 mph 8.1 mph 69% 0 in
21:25 80.1 °F 69.1 °F 29.9 in ENE 5 mph 9 mph 69% 0 in
21:30 79.9 °F 69.3 °F 29.9 in NNE 4.7 mph 5.8 mph 70% 0 in
21:35 79.7 °F 69.4 °F 29.9 in NE 4.7 mph 6.9 mph 71% 0 in
21:40 79.5 °F 69.3 °F 29.9 in ESE 4.3 mph 4.7 mph 71% 0 in
21:45 79.3 °F 69.1 °F 29.9 in NE 5 mph 7 mph 71% 0 in
21:50 79.2 °F 68.9 °F 30 in NE 3.6 mph 5.8 mph 71% 0 in
21:55 79.2 °F 68.9 °F 30 in NE 3 mph 10 mph 71% 0 in
22:00 79 °F 68.7 °F 30 in NE 5 mph 11 mph 71% 0 in
22:05 78.6 °F 68.7 °F 30 in ENE 5.2 mph 11.5 mph 72% 0 in
22:10 78.4 °F 69.1 °F 30 in ENE 6.9 mph 10.7 mph 73% 0 in
22:15 78.4 °F 69.1 °F 30 in Este 6.9 mph 9.2 mph 73% 0 in
22:20 78.4 °F 69.4 °F 30 in ENE 6 mph 9 mph 74% 0 in
22:25 78.3 °F 69.6 °F 30 in NE 6 mph 11 mph 75% 0 in
22:30 78.3 °F 69.6 °F 30 in NE 5.9 mph 8.1 mph 75% 0 in
22:35 78.1 °F 70 °F 30 in NE 6 mph 9 mph 76% 0 in
22:40 78.1 °F 70 °F 30 in NE 5.2 mph 4.6 mph 76% 0 in
22:45 78.1 °F 70 °F 30 in ENE 5 mph 6 mph 76% 0 in
22:50 78.1 °F 70 °F 30 in NE 3.6 mph 5.8 mph 76% 0 in
22:55 78.1 °F 70 °F 30 in NE 3 mph 7 mph 76% 0 in
23:00 77.9 °F 70.2 °F 30 in NE 5 mph 7 mph 77% 0 in
23:05 77.9 °F 70.2 °F 30 in NE 5 mph 8 mph 77% 0 in
23:10 77.7 °F 70 °F 30 in NE 5 mph 7 mph 77% 0 in
23:15 77.5 °F 70.2 °F 30 in NE 5 mph 7 mph 78% 0 in
23:20 77.5 °F 70.2 °F 30 in NE 5 mph 7 mph 78% 0 in
23:25 77.4 °F 70.3 °F 30 in ENE 4.7 mph 5.8 mph 79% 0 in
23:30 77.4 °F 70.3 °F 30 in NE 4.7 mph 5.8 mph 79% 0 in
23:35 77.4 °F 70.3 °F 30 in NE 5 mph 6 mph 79% 0 in
23:40 77.5 °F 70.5 °F 30 in ENE 3.1 mph 4.6 mph 79% 0 in
23:45 77.5 °F 70.5 °F 30 in NE 3 mph 6 mph 79% 0 in
23:50 77.5 °F 70.5 °F 30 in NE 3.1 mph 5.8 mph 79% 0 in
23:55 77.5 °F 70.5 °F 30 in NE 3 mph 6 mph 79% 0 in
Murcia-Puente Tocinos, España
Compliments of Weather Underground - 3 mb

La estación de MeteoMurcia.com, publica sus datos en los siguientes proyectos:

Weather Underground PWS IMURCIAP2 Meteoclimatic www.awekas.at

W3Counter
Web Analytics